Theta_e
322 330 345 347 349 349 349 348 347 348 348 349 348 347 347 346 346 346 346 346 347 347 346 345 343 343 344 344 345 343 340 339 340 340 341 340 345 345 347 349 348 347 351
324 332 346 348 348 349 348 347 347 348 348 346 346 345 344 342 342 341 340 341 343 343 344 343 341 337 338 340 340 339 337 337 335 334 336 334 338 349 349 349 350 348 350
328 333 340 347 348 349 348 347 348 348 347 346 346 345 343 340 337 336 336 337 338 341 341 339 335 333 332 333 334 333 333 332 329 328 330 326 329 350 349 348 348 348 349
329 332 335 345 348 348 348 348 348 347 346 346 344 341 340 338 336 335 334 334 335 335 334 333 331 328 327 329 329 327 327 327 323 324 319 325 329 346 347 346 345 344 345
326 329 332 341 348 348 348 348 347 346 345 343 340 337 336 335 334 331 329 333 334 332 329 325 323 321 321 322 322 322 323 322 321 318 319 322 326 340 347 345 343 343 344
322 325 333 340 343 346 342 344 344 340 342 339 336 335 335 333 329 327 325 329 326 324 323 321 319 319 319 319 320 319 318 317 312 308 312 315 324 342 344 343 341 342 341
318 321 327 339 341 342 340 338 338 338 338 336 334 333 331 328 325 323 323 323 323 322 320 319 319 320 319 318 317 317 315 312 299 301 307 310 322 339 340 340 340 339 339
316 318 323 332 337 338 337 338 338 337 336 334 333 329 326 324 323 322 322 322 321 320 320 320 318 318 317 316 315 313 311 306 299 299 304 308 324 331 332 332 333 334 334
314 316 318 323 328 331 332 336 336 335 334 331 328 326 324 323 322 320 321 320 320 320 318 316 316 315 315 313 311 309 307 305 294 297 303 307 322 327 327 326 326 327 327
310 313 314 316 320 321 325 330 330 332 331 328 326 325 323 322 321 320 320 319 319 318 315 314 312 312 310 309 307 305 302 300 292 294 299 307 318 322 323 323 323 323 323
307 308 310 312 313 314 314 318 325 326 325 324 322 319 313 305 306 306 312 318 317 315 313 311 309 306 305 304 304 302 298 290 291 292 296 308 313 318 319 320 320 321 321
304 305 306 308 309 309 312 311 311 313 311 309 307 304 300 299 300 303 310 315 314 312 310 308 305 301 295 289 290 294 289 289 289 290 294 306 310 313 315 317 318 319 320
306 305 305 305 305 306 307 306 304 304 303 301 300 297 295 296 298 298 297 295 294 298 292 293 290 289 288 288 288 287 288 288 287 289 295 303 307 311 313 314 316 319 320
301 304 304 304 304 303 303 304 302 301 298 297 296 294 292 293 293 293 291 289 288 288 287 287 287 287 288 288 287 287 287 287 287 288 290 299 304 308 311 314 317 317 318
300 302 302 303 304 303 301 301 299 298 298 295 294 293 292 292 290 290 288 287 286 287 286 286 286 286 286 287 287 286 286 286 286 287 287 298 303 307 312 313 315 316 317
300 301 301 302 303 302 302 300 300 298 296 294 292 293 292 292 289 289 287 287 286 286 286 286 285 285 285 286 286 286 286 286 286 286 287 289 301 305 310 313 314 316 316
298 300 299 300 302 300 301 299 299 297 295 294 293 292 292 291 289 288 287 286 285 285 286 285 284 284 284 285 284 285 286 285 285 286 287 287 290 302 307 310 310 311 315
297 295 297 301 300 299 299 298 298 296 295 295 293 292 292 291 289 287 287 286 285 285 284 284 283 283 283 283 282 283 283 285 285 286 286 287 289 291 301 306 304 305 307
298 297 295 297 298 298 298 296 295 294 294 294 292 291 291 291 289 288 287 285 285 284 284 284 282 282 281 282 283 282 282 283 284 286 284 286 289 289 290 297 296 298 300
297 297 295 295 297 297 297 295 292 292 293 292 292 291 290 291 289 287 286 285 285 283 283 283 282 282 281 281 283 282 282 283 283 282 283 285 286 288 286 286 286 287 294
295 295 295 293 295 295 294 292 291 292 291 291 292 291 290 290 288 287 286 285 284 283 283 282 281 281 281 280 280 280 281 282 282 282 282 283 284 284 284 284 284 285 285
296 295 295 294 294 294 295 295 294 294 292 292 291 290 290 289 288 287 286 284 284 282 282 281 282 280 281 279 279 279 278 280 281 282 282 282 281 282 283 284 283 284 284
292 293 295 295 294 294 295 294 286 286 285 286 286 288 289 288 288 287 285 285 284 283 282 281 281 281 280 279 279 280 277 278 278 280 280 281 281 281 281 282 283 283 283
293 293 295 295 294 293 294 293 292 292 290 290 291 290 289 288 287 286 285 285 284 283 281 281 281 280 280 279 279 281 279 278 277 276 279 279 280 280 280 281 281 282 283
293 292 294 294 294 293 293 293 292 292 293 289 291 289 287 287 287 285 285 284 283 283 282 281 280 280 280 279 279 279 278 278 278 277 276 277 279 279 280 280 281 281 282
291 291 291 291 292 292 292 293 291 292 291 287 287 287 286 286 286 285 285 284 283 283 281 281 281 280 280 280 280 280 279 278 277 277 276 276 276 278 279 280 279 280 281
Wind_Speed
5 7 13 15 14 16 15 13 11 10 12 11 12 10 10 9 10 9 10 8 8 11 11 9 10 12 13 12 14 15 13 14 14 14 15 14 13 3 5 8 7 5 9
8 7 12 15 15 16 15 13 12 12 13 11 11 10 10 9 8 7 8 8 9 9 10 11 12 9 10 13 14 14 13 14 15 14 14 13 14 6 8 8 8 8 11
11 7 7 13 14 14 14 14 13 14 13 12 11 11 11 9 8 7 6 6 6 8 9 10 9 8 8 8 10 9 11 12 14 14 13 6 7 10 13 12 12 13 13
8 6 6 9 14 15 13 14 14 13 13 13 13 11 9 9 7 8 7 6 5 6 6 8 8 8 8 8 8 9 10 11 13 13 6 6 6 10 11 13 14 14 14
7 6 6 8 13 16 16 16 14 13 13 11 9 9 9 8 8 8 7 8 9 9 9 8 7 7 7 8 9 9 10 11 12 9 6 6 5 7 11 13 12 13 12
7 6 8 9 10 10 14 10 11 8 9 11 11 10 9 10 9 8 8 9 9 9 8 8 9 8 8 9 10 10 12 13 11 7 6 9 7 8 11 13 13 13 12
7 6 6 10 10 10 12 14 13 13 12 12 12 11 11 10 9 8 9 9 10 10 9 8 9 9 10 10 10 11 12 13 7 6 6 7 8 15 16 15 14 14 15
8 6 6 8 10 12 11 13 13 14 14 13 13 12 11 10 9 9 10 10 10 10 10 9 9 9 10 10 11 12 13 12 8 6 6 5 11 12 13 14 15 13 15
5 6 5 5 8 11 14 12 12 14 14 14 13 12 11 12 12 10 10 10 11 10 10 9 9 10 10 10 11 12 13 13 6 4 6 4 11 11 12 12 11 12 12
5 6 6 5 6 6 5 9 14 11 13 13 12 12 10 10 11 11 9 10 11 11 10 10 9 9 9 10 11 11 12 12 6 5 4 4 10 10 10 10 11 11 11
5 6 6 6 6 6 6 6 8 11 11 11 10 11 8 4 6 6 6 11 11 11 10 10 10 9 9 9 10 10 9 4 5 4 3 9 9 9 9 10 10 10 10
10 9 7 7 7 6 4 5 5 5 5 5 6 7 5 5 4 4 5 8 10 10 9 10 9 8 7 4 4 7 3 5 4 4 3 11 9 8 8 8 8 9 9
11 7 10 8 7 7 6 4 3 3 4 4 7 6 6 4 3 3 3 3 4 7 4 5 5 4 4 4 4 4 4 4 3 3 6 10 9 8 7 7 7 9 10
11 11 9 9 9 7 5 6 5 5 4 4 5 7 5 4 4 4 4 4 3 3 4 3 2 3 3 4 4 4 4 3 3 2 3 9 8 8 7 7 9 9 10
11 12 12 12 12 10 9 6 6 6 6 6 6 6 6 6 5 5 4 4 4 4 4 4 4 3 4 3 3 4 4 4 4 2 1 8 8 8 10 9 10 10 12
14 15 14 15 14 12 12 10 8 6 6 6 5 7 7 6 5 5 5 5 4 4 3 4 3 3 3 2 3 3 4 3 3 3 2 3 9 9 8 12 11 12 10
14 12 17 17 15 15 15 11 9 8 7 8 7 8 8 8 7 7 5 5 4 4 6 4 3 2 2 1 3 4 3 4 3 4 4 3 4 9 10 12 10 11 13
13 18 15 15 18 17 16 12 9 8 8 8 7 8 10 9 9 7 6 5 5 4 4 4 3 2 2 2 1 3 3 3 4 4 4 4 4 4 8 16 14 11 10
17 15 16 18 19 20 16 11 11 10 9 8 7 8 10 9 9 8 7 6 6 5 4 4 2 2 2 1 2 3 3 3 4 3 6 5 5 5 4 12 13 13 13
14 16 15 15 17 17 11 9 6 7 9 8 9 9 10 9 10 8 6 7 6 5 5 3 3 2 2 1 2 4 4 3 3 4 5 4 5 6 5 6 4 5 13
10 14 17 17 17 14 11 12 9 13 10 9 10 14 13 11 11 10 7 7 6 7 6 6 4 4 1 1 3 3 4 3 5 4 3 4 5 5 5 4 3 3 4
13 15 14 17 18 18 15 13 8 11 9 9 7 9 12 13 13 11 11 9 9 6 6 6 5 3 2 2 4 2 2 2 1 3 2 3 4 3 4 4 3 4 3
9 12 16 18 17 16 17 12 5 6 4 4 7 7 10 13 13 14 13 11 11 8 8 7 6 7 5 1 1 4 3 4 1 1 1 1 2 3 2 4 3 4 3
12 10 13 14 17 17 18 14 20 16 13 13 13 12 13 16 15 14 14 12 12 8 8 8 6 4 5 5 2 2 4 3 4 1 1 2 2 3 1 3 3 4 3
8 10 12 13 14 16 18 19 15 15 12 5 8 14 13 13 14 15 15 14 12 9 9 11 8 7 4 5 4 4 2 3 3 3 3 2 2 2 2 3 3 3 2
6 7 7 9 13 15 17 19 21 22 12 9 12 12 11 10 10 12 13 12 12 12 11 9 9 8 7 4 4 4 5 5 4 4 2 2 3 3 2 4 3 2 2
Wind_Direction
221 185 178 173 177 166 161 156 155 153 150 144 135 128 116 109 95 86 77 71 82 78 74 70 57 46 36 39 44 36 32 26 20 17 16 14 7 42 51 69 57 46 43
152 181 171 174 176 169 163 162 166 159 153 148 143 134 129 123 111 93 86 65 63 79 69 59 55 47 35 35 40 30 28 22 22 21 18 11 3 40 79 67 56 56 47
155 168 166 174 177 171 165 168 171 161 154 152 149 141 128 111 120 120 103 88 95 85 79 73 56 47 38 32 35 29 24 28 26 21 19 5 351 49 67 59 48 43 36
148 151 157 165 173 174 173 175 165 156 157 152 147 115 112 133 131 129 122 103 102 103 86 70 64 54 50 46 44 37 26 34 32 24 13 5 359 31 62 58 51 42 34
149 154 159 160 179 171 169 166 162 156 164 150 148 165 170 160 147 131 121 116 101 101 97 93 78 67 61 55 47 42 39 44 47 36 23 3 355 15 67 68 59 51 39
158 156 168 169 180 171 171 162 160 168 153 172 177 178 169 155 147 137 131 119 108 99 90 81 76 79 79 64 55 52 58 58 52 35 23 5 357 45 63 61 52 46 38
164 165 170 176 176 160 164 193 186 194 192 188 182 173 161 156 147 140 132 125 116 111 106 105 101 86 72 70 66 56 55 59 59 42 28 11 3 42 44 44 45 44 35
158 170 180 183 182 169 185 195 183 195 188 180 177 173 163 158 150 142 135 128 125 115 109 99 93 87 80 72 65 62 60 57 49 42 37 15 23 36 39 37 31 35 31
163 165 181 183 186 187 197 187 188 193 179 178 179 174 164 159 153 152 145 140 127 120 111 102 89 77 67 64 66 67 67 65 59 46 30 8 31 44 45 41 33 36 31
184 189 185 177 160 168 182 178 193 169 173 178 176 165 154 154 152 152 148 145 135 127 119 110 100 92 81 68 60 59 60 56 50 38 25 22 36 40 42 41 38 38 36
218 206 191 183 175 165 165 174 165 163 169 173 160 137 120 115 122 123 162 148 141 133 126 117 112 100 87 75 68 54 52 44 52 44 7 29 37 41 45 44 41 41 42
209 206 192 187 178 167 164 163 154 156 151 145 137 126 129 142 146 150 137 136 137 133 126 116 107 93 81 65 42 48 57 44 38 26 6 21 28 40 42 47 48 48 52
208 194 194 185 179 172 172 162 160 156 146 146 147 146 149 150 154 122 86 71 70 84 59 78 76 65 70 68 47 45 45 51 41 28 8 19 20 31 40 46 54 59 56
195 201 188 183 182 184 170 179 173 167 166 165 167 160 157 155 159 153 138 146 130 111 124 118 101 108 90 80 79 71 66 61 47 28 27 24 26 32 47 60 58 60 63
206 201 196 187 190 185 184 175 176 184 179 171 171 173 164 165 168 151 157 154 149 151 161 146 143 131 107 105 95 89 68 54 43 37 33 44 47 50 59 62 69 63 63
208 204 192 196 194 185 193 186 190 182 173 174 175 182 176 167 160 162 163 167 159 166 148 147 150 142 123 122 92 74 77 69 64 63 48 47 60 55 65 69 65 66 72
215 203 197 193 192 192 196 190 186 187 179 185 187 180 177 171 171 165 163 164 169 163 154 144 140 126 106 74 67 48 59 57 72 76 71 70 57 62 73 73 76 67 71
200 201 189 192 192 194 197 191 192 188 186 190 187 181 182 180 172 164 164 175 164 159 158 150 145 107 86 63 54 60 58 84 91 83 76 83 79 63 63 76 64 60 54
204 199 197 192 194 194 194 187 189 184 191 192 183 183 185 181 174 170 173 166 160 156 168 160 132 157 149 35 25 59 64 84 98 89 64 75 83 88 75 70 58 46 36
205 203 197 195 198 192 186 182 181 182 192 181 185 190 180 181 175 171 166 163 159 160 165 166 144 94 117 93 59 65 43 68 71 63 65 86 87 87 76 62 47 27 22
204 199 194 188 191 175 182 180 191 204 198 198 195 186 182 180 177 176 172 163 165 173 177 168 133 138 107 102 106 43 47 60 59 60 53 76 82 84 75 65 44 33 22
209 204 201 203 188 187 188 194 198 189 200 205 202 194 186 176 175 176 173 175 174 162 169 174 158 137 133 160 138 96 101 333 25 29 77 60 68 69 41 57 35 46 42
222 205 207 202 198 200 193 177 129 103 80 148 172 184 196 186 181 181 176 173 173 171 179 179 173 169 149 140 64 137 114 214 137 8 164 26 27 9 9 4 8 9 28
229 215 219 204 203 193 185 190 192 198 189 198 193 188 185 186 186 181 179 178 178 176 171 180 172 171 146 160 118 73 61 126 166 170 280 243 251 309 230 316 314 323 345
239 222 213 200 203 192 194 190 197 212 212 181 180 177 181 182 189 184 181 177 178 180 181 172 164 180 180 149 151 154 127 61 65 126 212 272 316 277 277 281 285 293 308
272 251 231 210 197 193 194 201 198 205 194 168 165 178 181 178 180 191 187 184 180 177 179 180 179 171 178 166 158 162 160 162 179 157 172 211 236 291 257 280 274 255 244